Location: Unnamed
(23.5608°S, 46.6833°W)
Time: 21:36:17
(UTC-03:00)

STARLINK-5205 - Pass Details

Date: 05 December 2022
Orbit: 539 x 541 km, 53.2° (Epoch: 29 January)

Event Time Altitude Azimuth Distance (km) Brightness Sun altitude
Exits shadow 04:31:48 12° 307° (NW) 1,704 ? -9.0°
Maximum altitude 04:35:33 53° 230° (SW) 675 ? -8.3°
Drops below altitude 10° 04:39:36 10° 152° (SSE) 1,818 ? -7.4°
Sets 04:41:53 0° 147° (SSE) 2,714 ? -7.0°
